Regional Weather Roundup
Issued by NWS

Home | Current Version | Previous Version | Text Only | Print | Product List | Glossary On
Versions: 1 2 3 4 5 6 7 8 9 10 11 12 13 14 15 16 17 18 19 20 21 22 23 24 25 26 27 28 29 30 31 32 33 34 35 36 37 38 39 40 41 42 43 44 45 46 47 48 49 50
000
ASUS43 KDMX 181607
RWRIA

WEATHER ROUNDUP FOR IOWA
NATIONAL WEATHER SERVICE DES MOINES IA
1100 AM CDT SAT APR 18 2015

NOTE: "FAIR" INDICATES FEW OR NO CLOUDS BELOW 12,000 FEET WITH NO
SIGNIFICANT WEATHER AND/OR OBSTRUCTIONS TO VISIBILITY.

* - THESE STATIONS ARE NOT NWS STATIONS...THUS NOT UNDER NWS
QUALITY CONTROL.  THEY ALSO DO NOT REPORT WEATHER SUCH
AS PRECIPITATION OR FOG.

IAZ001>003-012>014-020>022-031>034-043>046-181700-
   NORTHWEST IOWA

CITY           SKY/WX    TMP DP  RH WIND       PRES   REMARKS
CARROLL *      PTSUNNY   63  57  82 E17G23    29.95S
CHEROKEE *     CLOUDY    63  52  67 SE12      29.96S
DENISON *      CLOUDY    63  59  88 SE14G37   29.92R
LE MARS *      PTSUNNY   64  52  63 SE14G21   29.94F
ORANGE CITY *  PTSUNNY   61  45  55 E9        29.95S
SHELDON *      CLOUDY    63  41  45 E15       29.95S
SIOUX CITY     LGT RAIN  60  54  80 E8        29.92S
SPENCER        CLOUDY    67  40  37 E17G26    29.97F
STORM LAKE *   PTSUNNY   61  55  82 SE16      29.97F
$$

IAZ055>058-069>071-079>083-090>094-181700-
   SOUTHWEST IOWA

CITY           SKY/WX    TMP DP  RH WIND       PRES   REMARKS
ATLANTIC *     CLOUDY    64  59  82 E13       29.91F
AUDUBON *      MOSUNNY   64  57  77 E16       29.94S
CLARINDA *     CLOUDY    66  59  77 SW7       29.93R
COUNCIL BLFS * HVY RAIN  61  61 100 SW14      29.95R VSB 3/4
CRESTON *      CLOUDY    66  57  72 SE17      29.93S
HARLAN  *      LGT RAIN  61  61 100 VRB5      29.96R
LAMONI         CLOUDY    65  60  84 CALM      29.92F
RED OAK *      LGT RAIN  64  59  82 S8        29.93R
SHENANDOAH *   LGT RAIN  61  61 100 SW3       29.94S
$$

IAZ047>049-059>061-072>074-084-181700-
   CENTRAL IOWA

CITY           SKY/WX    TMP DP  RH WIND       PRES   REMARKS
AMES           CLOUDY    59  53  80 NE7       29.96F
ANKENY *       SUNNY     66  55  68 E9        29.95F
CHARITON *     PTSUNNY   72  57  60 SE14G21   29.94S
DES MOINES     PTSUNNY   70  56  61 E12       29.95F
GRINNELL*      CLOUDY    70  54  56 E9        29.98S
KNOXVILLE *    PTSUNNY   68  57  68 E9        29.94S
MARSHALLTOWN   CLOUDY    69  51  52 E15       29.97F
PELLA *        CLOUDY    70  59  68 SE7       29.96F
PERRY *          N/A     64  57  77 E16       29.94F
$$

IAZ004>006-015-016-023>025-035-036-181700-
   NORTH CENTRAL IOWA

CITY           SKY/WX    TMP DP  RH WIND       PRES   REMARKS
ALGONA *       MOSUNNY   64  41  42 SE20G26   30.01S
CLARION *      LGT RAIN  57  48  72 E12       30.01F
ESTHERVILLE    PTSUNNY   66  36  32 SE18G29   29.99F
FORT DODGE *   CLOUDY    55  48  76 E9        30.01R
MASON CITY     CLOUDY    65  37  35 E13       30.02F
FOREST CITY *  MOSUNNY   64  36  34 E10G17    30.01S
IOWA FALLS *     N/A     66  43  42 NE3       30.00F
$$

IAZ007>011-017>019-026>030-037>042-050>054-066-181700-
   NORTHEAST IOWA

CITY           SKY/WX    TMP DP  RH WIND       PRES   REMARKS
CEDAR RAPIDS   PTSUNNY   72  52  49 E10       29.99S
CHARLES CITY * MOSUNNY   70  36  28 E18G25    30.02F
CLINTON *      MOSUNNY   73  50  43 E15       30.04S
DECORAH *      SUNNY     68  37  32 E14       30.03F
DUBUQUE        SUNNY     72  40  31 E16       30.03F
MONTICELLO *   SUNNY     73  48  40 E15       30.00S
OELWEIN *      SUNNY     73  41  31 E18G24    30.02S
WATERLOO       MOSUNNY   74  45  35 E18       29.99S
$$

IAZ064-065-067-068-078-181700-
   EAST CENTRAL IOWA

CITY           SKY/WX    TMP DP  RH WIND       PRES   REMARKS
DAVENPORT      MOSUNNY   73  51  46 SE12      30.01F
IOWA CITY      CLOUDY    72  52  49 E8        30.00F
MT. PLEASANT * CLOUDY    72  55  56 SE9       29.99S
MUSCATINE *    SUNNY     72  55  56 SE6       30.00R
QUAD CITIES    PTSUNNY   73  53  49 E7        30.00F
$$

IAZ062-063-075>077-085>089-095>099-181700-
   SOUTHEAST IOWA

CITY           SKY/WX    TMP DP  RH WIND       PRES   REMARKS
BURLINGTON     CLOUDY    72  59  63 E6        29.99S
FAIRFIELD *    PTSUNNY   72  59  64 SE8       29.98S
FORT MADISON * SUNNY     75  59  57 S9        30.00S
KEOKUK *       SUNNY     72  61  68 SE7G14    29.99S
OSKALOOSA *      N/A     73  55  53 SE13      29.97S
CENTERVILLE *  SUNNY     68  59  73 SE15      29.97S
OTTUMWA        CLOUDY    73  57  57 SE13      29.96S
WASHINGTON *   SUNNY     73  57  56 SE8       29.99S
$$

ABBREVIATIONS USED IN REMARKS
   TC - TEMPERATURES IN CELSIUS
  WCI - WIND CHILL INDEX
   HX - HEAT INDEX
  VSB - VISIBILITY
$$



USA.gov is the U.S. government's official web portal to all federal, state and local government web resources and services.